Regional Weather Roundup
Issued by NWS Jackson, KY

Home | Current Version | Previous Version | Graphics & Text | Print | Product List | Glossary On
Versions: 1 2 3 4 5 6 7 8 9 10 11 12 13 14 15 16 17 18 19 20 21 22 23 24 25 26 27 28 29 30 31 32 33 34 35 36 37 38 39 40 41 42 43 44 45 46 47 48 49 50
000
ASUS43 KJKL 230319
RWRJKL

EAST KENTUCKY HOURLY WEATHER ROUNDUP
NATIONAL WEATHER SERVICE JACKSON KY
1100 PM EDT WED OCT 22 2014

NOTE: "FAIR" INDICATES FEW OR NO CLOUDS BELOW 12,000 FEET WITH
NO SIGNIFICANT WEATHER AND/OR OBSTRUCTIONS TO VISIBILITY.

* THESE REPORTS ARE NOT UNDER NWS QUALITY CONTROL AND MAY NOT
  REPORT WEATHER SUCH AS PRECIPITATION AND FOG.

KYZ079-080-083-085-087-088-110-112-115-119-120-230400
...EASTERN KENTUCKY...

CITY           SKY/WX    TMP DP  RH WIND       PRES   REMARKS
JACKSON        CLOUDY    48  41  76 CALM      30.24S
LONDON         CLOUDY    49  42  77 N3        30.24F
SOMERSET*      CLOUDY    46  41  81 CALM      30.27S
MONTICELLO*    CLOUDY    48  43  83 CALM      30.26F
WILLIAMSBURG*  CLOUDY    45  45 100 CALM      30.24S
MIDDLESBORO*   CLOUDY    48  41  77 CALM      30.24S
HARLAN APT*    CLOUDY    46  41  81 N7        30.22F
HAZARD APT*    CLOUDY    48  46  93 CALM      30.24S
BLACK MTN*       N/A     36  36 100 N12         N/A  WCI  27
PIKEVILLE APT* CLOUDY    46  43  87 NW5       30.22F
BIG SANDY*     CLOUDY    48  43  84 N3        30.23F
MOREHEAD APT*  CLOUDY    48  43  81 CALM      30.27S
ASHLAND*       CLOUDY    50  39  66 N5        30.24S
$$

KYZ035-036-041-042-044-050-067-078-099-230400
...CENTRAL KENTUCKY...

CITY           SKY/WX    TMP DP  RH WIND       PRES   REMARKS
MT STERLING*   CLOUDY    48  43  81 NE3       30.27S
FLEMING/MASON* CLOUDY    48  41  76 NE8       30.28S
DANVILLE*      CLOUDY    46  43  87 CALM      30.27S
RICHMOND*      CLOUDY    48  43  81 CALM      30.25S
LEXINGTON      CLOUDY    52  40  63 NE9       30.26F
FRANKFORT      CLEAR     48  40  73 NE5       30.26S
$$

KYZ091>093-OHZ055-061-077-WVZ005-015-034-035-042-230400
...SOUTHERN OHIO/WEST VIRGINIA...

CITY           SKY/WX    TMP DP  RH WIND       PRES   REMARKS
COVINGTON      CLOUDY    50  39  66 NE9       30.26F
COLUMBUS       CLOUDY    49  41  74 N5        30.25S
DAYTON         MOCLDY    47  39  74 CALM      30.28F
WILMINGTON     CLOUDY    47  39  74 NE3       30.25F
HUNTINGTON     CLOUDY    48  41  76 N6        30.23F
CHARLESTON     CLOUDY    49  43  80 NW7       30.22S
PINEVILLE*     DRIZZLE   47  47  99 MISG      30.24S
BECKLEY        CLOUDY    43  39  86 NW8       30.18S
BLUEFIELD      LGT RAIN  44  40  85 NW10      30.17S
$$

VAZ002-007-008-TNZ017-027-036-066-071-230400
...SOUTHWEST VIRGINIA/EAST TENNESSEE...

CITY           SKY/WX    TMP DP  RH WIND       PRES   REMARKS
WISE*          CLOUDY    43  43 100 N6        30.21S
JONESVILLE*    CLOUDY    48  39  71 CALM      30.24S
ABINGDON*      CLOUDY    47  42  83 NW5       30.19S
BRISTOL        MOCLDY    47  41  80 CALM      30.21S
KNOXVILLE      PTCLDY    46  39  76 NE8       30.22S
OAK RIDGE      CLEAR     45  40  82 CALM      30.24S
CROSSVILLE     CLEAR     42  37  82 NE5       30.22S
NASHVILLE      CLEAR     51  43  74 NE7       30.22R
$$

...KEY TO REMARKS...
VSB - VISIBILITY IN MILES
WCI - WIND CHILL INDEX
HX  - HEAT INDEX

$$



USA.gov is the U.S. government's official web portal to all federal, state and local government web resources and services.